[[{"header":{"parameterUnit":"m.s-1","parameterCategory":1,"la1":30.2991,"la2":30.254,"lo1":-89.0895,"lo2":-89.0444,"dy":0.0017,"dx":0.0017,"nx":28,"ny":28,"refTime":"2025-07-03T21:00:00:Z","depth":0,"parameterNumber":2,"parameterNumberName":"U-component_of_WINDS"},"data":[0,0,0,0,0,0,0,0,0,0,0,0,0,0,0,0,0,0,0,0,0,0,0,0,0,0,0,0,0,0,0,0,0,0,0,0,0,0,0,0,0,0,0,0,0,0,0,0,0,0,0,0,0,0,0,0,0,0,-0.4439,-0.4438,0,-0.4347,-0.4346,-0.4345,-0.4331,-0.4332,-0.4332,-0.4333,-0.4233,-0.4229,-0.4226,0,0,0,0,0,0,0,0,0,0,0,0,0,-0.4599,-0.4596,-0.4439,-0.4438,-0.4437,-0.4347,-0.4346,-0.4344,-0.4331,-0.4332,-0.4333,-0.4334,-0.4234,-0.423,-0.4226,0,0,0,0,0,0,0,0,0,0,0,0,0,-0.452,-0.4595,-0.4439,-0.4419,-0.4417,-0.4347,-0.4346,-0.4344,-0.433,-0.4332,-0.4333,-0.4334,-0.4235,-0.423,-0.4225,-0.4168,0,0,-0.4209,-0.4207,0,0,0,0,0,0,0,0,-0.4525,-0.4514,-0.4423,-0.4421,-0.4417,-0.4352,-0.4365,-0.4285,-0.433,-0.4363,-0.4333,-0.4335,-0.4271,-0.4263,-0.4243,-0.4163,-0.4159,-0.4209,-0.4206,-0.4203,-0.4202,0,0,0,0,0,0,0,-0.453,-0.4518,-0.4402,-0.4422,-0.4418,-0.4413,-0.4404,-0.435,-0.4311,-0.436,-0.4359,-0.4349,-0.427,-0.4248,-0.424,-0.4157,-0.4209,-0.4204,-0.4201,-0.4199,-0.4025,-0.4024,0,0,0,0,0,0,-0.454,-0.4523,-0.4405,-0.44,-0.4475,-0.4409,-0.4398,-0.4371,-0.4311,-0.4304,-0.4348,-0.4348,-0.4256,-0.4246,-0.4237,-0.4165,-0.4204,-0.4199,-0.4196,-0.4027,-0.4025,-0.4023,0,0,0,0,0,0,-0.4543,-0.453,-0.4409,-0.4461,-0.4445,-0.4405,-0.4375,-0.4369,-0.4347,-0.4302,-0.4294,-0.4333,-0.4257,-0.4244,-0.4185,-0.4161,-0.4196,-0.4192,-0.4028,-0.4026,-0.4024,-0.4021,0,0,0,0,0,0,-0.4548,-0.4531,-0.451,-0.4461,-0.4443,-0.4361,-0.4374,-0.4366,-0.4339,-0.4339,-0.4286,-0.4278,-0.4257,-0.4193,-0.418,-0.4155,-0.4188,-0.403,-0.4027,-0.4025,-0.4023,-0.4019,-0.4016,0,0,0,0,0,-0.4554,-0.4511,-0.4509,-0.4495,-0.4416,-0.4359,-0.4349,-0.4326,-0.4337,-0.4315,-0.4286,-0.428,-0.4166,-0.4187,-0.4172,-0.4145,-0.4032,-0.4028,-0.4025,-0.4025,-0.402,-0.4016,0,0,0,0,0,0,-0.4556,-0.4505,-0.4501,-0.4442,-0.4406,-0.4357,-0.4328,-0.4322,-0.428,-0.4282,-0.4254,-0.4242,-0.4184,-0.4159,-0.4183,-0.4086,-0.41,-0.4093,-0.4105,-0.41,-0.4096,-0.4103,-0.4183,0,0,0,0,0,-0.4551,-0.4511,-0.4467,-0.4419,-0.4402,-0.4368,-0.4343,-0.4329,-0.4289,-0.4273,-0.424,-0.42,-0.4155,-0.4126,-0.4082,-0.402,-0.4008,-0.3994,-0.399,-0.3987,-0.3982,-0.3946,-0.394,-0.4012,-0.4012,-0.4012,0,0,-0.4537,-0.4504,-0.4481,-0.4419,-0.4389,-0.4348,-0.4355,-0.431,-0.4279,-0.4266,-0.4209,-0.4183,-0.4136,-0.4076,-0.4047,-0.4053,-0.3959,-0.3983,-0.3981,-0.3977,-0.3942,-0.3935,-0.3929,-0.401,-0.401,-0.401,0,0,-0.4492,-0.4463,-0.442,-0.4391,-0.4346,-0.4324,-0.4314,-0.4267,-0.425,-0.4193,-0.4182,-0.4143,-0.4067,-0.4035,-0.4008,-0.3951,-0.3944,-0.3938,-0.3917,-0.3883,-0.3877,-0.3872,-0.3851,-0.3844,-0.3932,-0.3932,-0.3932,0,-0.448,-0.4419,-0.4398,-0.4355,-0.4327,-0.4316,-0.4271,-0.4243,-0.4186,-0.4166,-0.4174,-0.4078,-0.4046,-0.3978,-0.3964,-0.3943,-0.3929,-0.3943,-0.388,-0.3875,-0.387,-0.3849,-0.3842,-0.3932,-0.3932,-0.3932,-0.3932,0,-0.4407,-0.4364,-0.4334,-0.4282,-0.4251,-0.4207,-0.4179,-0.415,-0.4139,-0.4116,-0.4057,-0.4019,-0.3967,-0.395,-0.3938,-0.3879,-0.3884,-0.3886,-0.3899,-0.3863,-0.3843,-0.3835,-0.3931,-0.3931,-0.3931,-0.3931,0,0,-0.4359,-0.4297,-0.4286,-0.4262,-0.4213,-0.4178,-0.4134,-0.4085,-0.4061,-0.4022,-0.3982,-0.3919,-0.3921,-0.3891,-0.3875,-0.3845,-0.3802,-0.385,-0.3849,-0.3842,-0.3734,-0.3732,-0.3724,-0.3797,-0.3796,-0.3795,-0.3738,0,-0.4307,-0.4229,-0.4209,-0.4142,-0.4102,-0.4091,-0.4051,-0.4016,-0.3993,-0.3955,-0.3929,-0.3884,-0.3891,-0.3873,-0.3843,-0.3813,-0.3779,-0.3817,-0.3759,-0.3757,-0.377,-0.3714,-0.3711,-0.366,-0.373,-0.3729,-0.3728,0,-0.4236,-0.4198,-0.4127,-0.4083,-0.4065,-0.4031,-0.3985,-0.3949,-0.3908,-0.3893,-0.3861,-0.3848,-0.3799,-0.3816,-0.3747,-0.3773,-0.3748,-0.373,-0.3728,-0.3721,-0.374,-0.3704,-0.3643,-0.3635,-0.3716,-0.3717,-0.3717,0,-0.4208,-0.4138,-0.4087,-0.4067,-0.4015,-0.399,-0.3967,-0.3928,-0.39,-0.3859,-0.3841,-0.3794,-0.3769,-0.3732,-0.3707,-0.3721,-0.364,-0.3655,-0.3626,-0.3626,-0.3608,-0.3609,-0.3541,-0.3593,-0.3594,-0.3594,-0.3594,0,-0.4151,-0.4108,-0.4074,-0.4042,-0.3993,-0.3971,-0.3922,-0.3898,-0.3864,-0.3826,-0.3813,-0.3777,-0.3746,-0.3706,-0.3686,-0.3632,-0.362,-0.3606,-0.3601,-0.3607,-0.3609,-0.3589,-0.3592,-0.3592,-0.3592,-0.3592,-0.3593,0,-0.4111,-0.4087,-0.403,-0.3986,-0.3974,-0.394,-0.3901,-0.3869,-0.3847,-0.3799,-0.3786,-0.3751,-0.3703,-0.3674,-0.3613,-0.3599,-0.354,-0.3536,-0.3554,-0.3552,-0.3524,-0.3527,-0.344,-0.3427,-0.3489,-0.3489,-0.3488,0,-0.4077,-0.4043,-0.3997,-0.3972,-0.3949,-0.3908,-0.388,-0.3857,-0.3828,-0.378,-0.3753,-0.3705,-0.3665,-0.3589,-0.3556,-0.3509,-0.3504,-0.3477,-0.3497,-0.3504,-0.3503,-0.3505,-0.3501,-0.3473,-0.3473,-0.3472,-0.3472,0,-0.4017,-0.4007,-0.3969,-0.3926,-0.3894,-0.3859,-0.3823,-0.3803,-0.3773,-0.3741,-0.3694,-0.3663,-0.3602,-0.3553,-0.3504,-0.3478,-0.3469,-0.3467,-0.3457,-0.3462,-0.3474,-0.3467,-0.3544,-0.3468,-0.3469,-0.3469,-0.3469,-0.3469,-0.3978,-0.3949,-0.3911,-0.3869,-0.384,-0.3808,-0.3776,-0.3751,-0.3711,-0.3661,-0.3649,-0.3598,-0.3558,-0.3491,-0.3464,-0.3423,-0.3427,-0.3413,-0.341,-0.3407,-0.3406,-0.3481,-0.3414,-0.3414,-0.3414,-0.3414,-0.3414,0,-0.3918,-0.3894,-0.3856,-0.3808,-0.3774,-0.3772,-0.3733,-0.3704,-0.3661,-0.3625,-0.3586,-0.3531,-0.3485,-0.3449,-0.3401,-0.3375,-0.337,-0.3363,-0.3364,-0.3358,-0.3405,-0.3418,-0.3368,-0.3368,-0.3368,-0.3368,-0.3368,-0.3368,-0.3883,-0.3832,-0.3818,-0.3753,-0.3728,-0.368,-0.3658,-0.3628,-0.3599,-0.3539,-0.3501,-0.3479,-0.3443,-0.3392,-0.3349,-0.3339,-0.3322,-0.3315,-0.3305,-0.335,-0.3355,-0.3359,-0.3371,-0.3312,-0.3312,-0.3261,-0.3261,-0.326]},{"header":{"parameterUnit":"m.s-1","parameterCategory":1,"la1":30.2991,"la2":30.254,"lo1":-89.0895,"lo2":-89.0444,"dy":0.0017,"dx":0.0017,"nx":28,"ny":28,"refTime":"2025-07-03T21:00:00:Z","depth":0,"parameterNumber":3,"parameterNumberName":"V-component_of_WINDS"},"data":[0,0,0,0,0,0,0,0,0,0,0,0,0,0,0,0,0,0,0,0,0,0,0,0,0,0,0,0,0,0,0,0,0,0,0,0,0,0,0,0,0,0,0,0,0,0,0,0,0,0,0,0,0,0,0,0,0,0,-0.8296,-0.8298,0,-0.8428,-0.8429,-0.8431,-0.8458,-0.8457,-0.8456,-0.8455,-0.8594,-0.8598,-0.8603,0,0,0,0,0,0,0,0,0,0,0,0,0,-0.8072,-0.8076,-0.8296,-0.8298,-0.8299,-0.8427,-0.8429,-0.8431,-0.8458,-0.8457,-0.8456,-0.8455,-0.8592,-0.8597,-0.8603,0,0,0,0,0,0,0,0,0,0,0,0,0,-0.8183,-0.8077,-0.8296,-0.8328,-0.8333,-0.8427,-0.8429,-0.8431,-0.8459,-0.8457,-0.8456,-0.8454,-0.859,-0.8597,-0.8604,-0.8676,0,0,-0.8625,-0.8628,0,0,0,0,0,0,0,0,-0.8177,-0.8191,-0.8322,-0.8326,-0.8331,-0.8425,-0.8401,-0.8513,-0.8459,-0.8411,-0.8455,-0.8454,-0.8539,-0.855,-0.8578,-0.8682,-0.8688,-0.8625,-0.863,-0.8632,-0.8634,0,0,0,0,0,0,0,-0.8169,-0.8186,-0.8348,-0.8324,-0.833,-0.8338,-0.8352,-0.8422,-0.8482,-0.8415,-0.8417,-0.8432,-0.8541,-0.8571,-0.8581,-0.869,-0.8625,-0.8631,-0.8636,-0.8638,-0.8861,-0.8863,0,0,0,0,0,0,-0.8155,-0.8179,-0.8344,-0.8352,-0.8249,-0.8343,-0.8359,-0.8396,-0.8481,-0.8492,-0.8433,-0.8433,-0.856,-0.8573,-0.8586,-0.8677,-0.8632,-0.8639,-0.8643,-0.8859,-0.8862,-0.8863,0,0,0,0,0,0,-0.815,-0.817,-0.8339,-0.8266,-0.8289,-0.8348,-0.8391,-0.84,-0.843,-0.8495,-0.8506,-0.8453,-0.8559,-0.8577,-0.8653,-0.8683,-0.8642,-0.8648,-0.8857,-0.886,-0.8863,-0.8859,0,0,0,0,0,0,-0.8144,-0.8168,-0.8195,-0.8267,-0.8292,-0.8403,-0.8392,-0.8403,-0.8441,-0.8442,-0.8516,-0.8527,-0.856,-0.8643,-0.866,-0.8691,-0.8654,-0.8855,-0.8859,-0.8862,-0.8857,-0.8862,-0.8865,0,0,0,0,0,-0.8136,-0.819,-0.8196,-0.8216,-0.8328,-0.8404,-0.8419,-0.8454,-0.8443,-0.8472,-0.8514,-0.8525,-0.8676,-0.865,-0.867,-0.8704,-0.8853,-0.8858,-0.8861,-0.8855,-0.8861,-0.8865,0,0,0,0,0,0,-0.8121,-0.82,-0.8208,-0.8287,-0.8338,-0.8409,-0.8446,-0.8459,-0.8516,-0.8515,-0.8557,-0.8573,-0.8648,-0.8683,-0.8653,-0.8778,-0.8764,-0.8772,-0.8753,-0.8759,-0.8763,-0.8754,-0.8659,0,0,0,0,0,-0.8127,-0.8182,-0.8247,-0.8311,-0.8336,-0.8386,-0.8421,-0.8443,-0.85,-0.8522,-0.8569,-0.8624,-0.8684,-0.8723,-0.8782,-0.8861,-0.8879,-0.8894,-0.8898,-0.8901,-0.8909,-0.8955,-0.8963,-0.8877,-0.8877,-0.8877,0,0,-0.814,-0.819,-0.8222,-0.8309,-0.8352,-0.8409,-0.8405,-0.8465,-0.8508,-0.8532,-0.8607,-0.8643,-0.8707,-0.8786,-0.8823,-0.8818,-0.8936,-0.8907,-0.8908,-0.8915,-0.896,-0.8968,-0.8975,-0.8879,-0.8879,-0.8879,0,0,-0.8193,-0.8235,-0.8293,-0.8336,-0.84,-0.8433,-0.8446,-0.8515,-0.854,-0.8615,-0.8634,-0.8686,-0.8788,-0.8834,-0.887,-0.8939,-0.8952,-0.8956,-0.8979,-0.9023,-0.903,-0.9036,-0.9063,-0.9071,-0.8963,-0.8963,-0.8963,0,-0.8202,-0.8288,-0.8321,-0.8381,-0.8419,-0.8441,-0.85,-0.854,-0.8621,-0.8647,-0.864,-0.8768,-0.8813,-0.8903,-0.892,-0.8947,-0.8966,-0.8949,-0.9026,-0.9033,-0.9039,-0.9065,-0.9074,-0.8963,-0.8963,-0.8963,-0.8963,0,-0.8296,-0.8355,-0.8393,-0.847,-0.8512,-0.8571,-0.8615,-0.8654,-0.8672,-0.8706,-0.8783,-0.8837,-0.8907,-0.893,-0.8949,-0.9023,-0.9018,-0.9017,-0.9005,-0.9047,-0.9072,-0.9082,-0.8964,-0.8964,-0.8964,-0.8963,0,0,-0.8346,-0.8439,-0.8453,-0.8488,-0.856,-0.8607,-0.8666,-0.8734,-0.8767,-0.8821,-0.8874,-0.8959,-0.8959,-0.9,-0.9024,-0.9063,-0.9116,-0.9058,-0.906,-0.9069,-0.9203,-0.9204,-0.9215,-0.9123,-0.9125,-0.9127,-0.9198,0,-0.841,-0.8517,-0.8549,-0.8639,-0.8695,-0.8716,-0.8768,-0.8818,-0.8851,-0.8904,-0.8941,-0.9001,-0.8996,-0.9021,-0.9059,-0.9101,-0.9143,-0.9096,-0.9175,-0.9177,-0.916,-0.9227,-0.9229,-0.9294,-0.9208,-0.9209,-0.921,0,-0.8499,-0.8554,-0.8649,-0.8714,-0.8739,-0.8785,-0.885,-0.8899,-0.8957,-0.8978,-0.9023,-0.9043,-0.9108,-0.9089,-0.918,-0.9147,-0.918,-0.9205,-0.9209,-0.922,-0.9198,-0.9242,-0.9315,-0.9325,-0.9226,-0.9224,-0.9223,0,-0.8528,-0.8626,-0.8696,-0.8725,-0.8802,-0.8834,-0.8868,-0.8924,-0.8962,-0.9019,-0.9044,-0.9107,-0.9143,-0.9192,-0.9229,-0.9212,-0.9317,-0.9301,-0.9338,-0.9337,-0.9362,-0.936,-0.9443,-0.9379,-0.9379,-0.9379,-0.9378,0,-0.8597,-0.8656,-0.871,-0.8754,-0.882,-0.8856,-0.892,-0.8955,-0.9005,-0.9056,-0.9077,-0.9125,-0.917,-0.9225,-0.9254,-0.9325,-0.9341,-0.9361,-0.9368,-0.936,-0.9358,-0.9385,-0.9382,-0.9381,-0.9381,-0.938,-0.938,0,-0.8643,-0.8681,-0.876,-0.8825,-0.8843,-0.8889,-0.8946,-0.8989,-0.9022,-0.9087,-0.9104,-0.9156,-0.9221,-0.9262,-0.9345,-0.9365,-0.9444,-0.9449,-0.9424,-0.9428,-0.9464,-0.946,-0.9569,-0.9586,-0.9508,-0.9509,-0.9509,0,-0.8686,-0.8731,-0.8801,-0.8836,-0.887,-0.8926,-0.8965,-0.9002,-0.9042,-0.911,-0.9146,-0.9211,-0.9266,-0.9369,-0.9415,-0.9479,-0.9487,-0.9521,-0.9497,-0.9488,-0.949,-0.9488,-0.9494,-0.9525,-0.9526,-0.9527,-0.9527,0,-0.8758,-0.8775,-0.8829,-0.8891,-0.8936,-0.8987,-0.9037,-0.9065,-0.911,-0.9154,-0.922,-0.9263,-0.9346,-0.9412,-0.948,-0.9516,-0.953,-0.9533,-0.9546,-0.954,-0.9524,-0.9535,-0.9437,-0.9532,-0.9531,-0.9531,-0.9531,-0.953,-0.8805,-0.8847,-0.8902,-0.8963,-0.9004,-0.905,-0.9094,-0.9132,-0.9187,-0.9258,-0.9276,-0.9345,-0.9402,-0.9493,-0.953,-0.9586,-0.9582,-0.9599,-0.9604,-0.9608,-0.961,-0.9513,-0.9598,-0.9598,-0.9598,-0.9598,-0.9598,0,-0.8881,-0.8917,-0.8972,-0.9041,-0.9089,-0.9095,-0.9151,-0.9191,-0.9251,-0.9302,-0.9355,-0.9431,-0.9495,-0.9545,-0.9611,-0.9646,-0.9654,-0.9662,-0.9661,-0.967,-0.9609,-0.9593,-0.9654,-0.9654,-0.9654,-0.9654,-0.9654,-0.9654,-0.8926,-0.8996,-0.9019,-0.9111,-0.9147,-0.9214,-0.9246,-0.9289,-0.933,-0.9414,-0.9466,-0.9497,-0.9549,-0.9618,-0.9677,-0.969,-0.9714,-0.9722,-0.9736,-0.968,-0.9674,-0.9668,-0.9653,-0.9726,-0.9726,-0.9793,-0.9793,-0.9794]}]]